Location: Mount Cross
(36.6390°N, 79.4878°W)
Time: 01:02:27
(UTC+00:00)

Vanguard 2 Rocket - Pass Details

Date: 22 March 2023
Orbit: 554 x 3314 km, 32.9° (Epoch: 08 June)

Event Time Altitude Azimuth Distance (km) Brightness Sun altitude
Rises 04:26:08 0° 271° (W) 4,859 10.8 -50.4°
Reaches altitude 10° 04:28:48 10° 270° (W) 4,166 10.4 -50.6°
Enters shadow 04:32:09 26° 266° (W) 3,409 9.8 -50.9°
Exits shadow 05:03:17 - 107° (ESE) 6,850 11.2 -52.5°
Sets 05:05:25 0° 107° (ESE) 7,298 11.4 -52.6°
